Tracking 19831 objects as of 24-Aug-2019
HD Live streaming from Space Station
objects crossing your sky now

METEOR 3M

Track METEOR 3M now!
10-day predictions
METEOR 3M is classified as:


NORAD ID: 27001
Int'l Code: 2001-056A
Perigee: 1,000.2 km
Apogee: 1,021.6 km
Inclination: 99.5 °
Period: 105.2 minutes
Semi major axis: 7381 km
RCS: 7.1203 m2 (large)
Launch date: December 10, 2001
Source: Commonwealth of Independent States (former USSR) (CIS)
Launch site: TYURATAM MISSILE AND SPACE COMPLEX (TTMTR)
aabbcc
Your satellite tracking list
Your tracking list is empty




NASA's NSSDC Master Catalog

Two Line Element Set (TLE):
1 27001U 01056A   19235.42626440 -.00000018  00000-0  30580-4 0  9990
2 27001  99.5278  11.0399 0014506 100.5398 327.7042 13.68833952884325
Source of the keplerian elements: AFSPC